COSMOS 2251 DEB, 35982

Orbit data source: Space-Track

COSMOS 2251 DEB, 35982 is space debris in LEO originally from a launch on Wed, 16 Jun 1993 UTC launched from the Plesetsk Missile And Space Complex (PKMTR). The debris from Iridium 33, an American commercial communications satellite, has been tracked extensively since its accidental collision with the defunct Russian satellite Cosmos 2251 in 2009. This event, occurring at high speed in low Earth orbit (LEO), generated thousands of pieces of space debris, significantly increasing the risk of further collisions. The Iridium 33 debris cloud has impacted space traffic management and orbital debris mitigation strategies, making it a subject of ongoing study in space situational awareness.

Loading next visibility...
Identifier
35982, 1993-036AVY
Orbit
LEO
Country
Flag of CISCIS
Related business
Manufacturer
Unknown
Mission
Spacecraft
Bus & Motor
Unknown
Mass
Unknown
Launch date (UTC)
1993-06-16 (33 years ago)
Launch vehicle
Unknown
Launch site
Plesetsk Missile And Space Complex (PKMTR)
Object type
Payload
Rocket body
Debris
Shape & HBR
Unknown shape, 0.1 m
Radar Cross Section
Medium (>0.1 m² and <1 m²)

Expand to show TLE details & history
Last TLE update: 1 day ago

TLE from 1 day ago
0 COSMOS 2251 DEB
1 35982U 93036AVY 26169.47867374  .00001451  00000-0  27558-3 0  9999
2 35982  74.0576 347.1904 0064323   6.0403 354.1525 14.63850429889122
Epoch: 2026-06-18T11:29Z
TLE epoch observation values (Epoch: 2026-06-18T11:29:17.411Z)
Latitude
0.00002°
Longitude
-91.85356°
Altitude
638.241 km
Speed
7.563 km/s
True Right ascension
23h 08m 45s
True Declination
0° 00' 00"
Sunlit
Object was in daylight at epoch
Visualization orbit readout
Latitude
Unknown
Longitude
Unknown
Altitude
Unknown
Speed
Unknown
Apparent Right ascension
Unknown
Apparent Declination
Unknown
Sunlit
N/A
Visualization observer readout
Local Sidereal Time
06:25:05
Azimuth
Unknown
Elevation
Unknown
Doppler factor
Unknown
Orbital elements
Apogee altitude
723.749 km
Perigee altitude
632.97 km
Semi-major axis
7,056.497 km
Eccentricity
0.00643
Inclination
74.0576°
RAAN
347.1904°
Arg. of periapsis
6.0403°
True anomaly
354.0768°
Mean anomaly
354.1525°
Eccentric anomaly
354.11471°
Mean motion
3.6615 °/min
Orbital period
98.32 mins
BSTAR
0.00027558

Documentation

Showing up to 5 results
|